Regional Weather Roundup
Issued by NWS

Home | Current Version | Previous Version | Graphics & Text | Print | Product List | Glossary On
Versions: 1 2 3 4 5 6 7 8 9 10 11 12 13 14 15 16 17 18 19 20 21 22 23 24 25 26 27 28 29 30 31 32 33 34 35 36 37 38 39 40 41 42 43 44 45 46 47 48 49 50
298
ASUS43 KFSD 021502
RWRSD

WEATHER ROUNDUP FOR SOUTH DAKOTA
NATIONAL WEATHER SERVICE SIOUX FALLS SD
1000 AM CDT MON MAY 02 2016

NOTE: "FAIR" INDICATES FEW OR NO CLOUDS BELOW 12,000 FEET WITH NO
SIGNIFICANT WEATHER AND/OR OBSTRUCTIONS TO VISIBILITY.


SDZ001>005-009-010-012>017-021600-
NORTHWEST AND NORTH CENTRAL SOUTH DAKOTA

CITY           SKY/WX    TMP DP  RH WIND       PRES   REMARKS
BUFFALO          N/A     58  33  39 W22       30.03F
FAITH            N/A     54  35  48 W15       30.09S
MOBRIDGE       CLOUDY    50  37  61 NW10      30.05R
$$

SDZ012>016-024>037-041>051-057-063-072>074-021600-
SOUTHWEST AND SOUTH CENTRAL SOUTH DAKOTA

CITY           SKY/WX    TMP DP  RH WIND       PRES   REMARKS
RAPID CTY ARPT MOSUNNY   54  34  46 NW10      30.14S
PIERRE         CLOUDY    47  36  65 W10       30.08F
CUSTER         SUNNY     45  26  47 VRB5      30.16F
ELLSWORTH AFB  MOSUNNY   55  36  48 NW7       30.13F
PHILIP         CLOUDY    49  39  68 W13       30.12F
PINE RIDGE     SUNNY     48  33  56 W10       30.16F
WINNER         FAIR      54  38  54 SW7       30.13F
$$

SDZ004>011-016>023-039-040-021600-
NORTHEAST SOUTH DAKOTA

CITY           SKY/WX    TMP DP  RH WIND       PRES   REMARKS
ABERDEEN       MOSUNNY   54  39  57 S7        30.07F
WATERTOWN      PTSUNNY   56  35  45 NW5       30.09F
BROOKINGS      SUNNY     54  38  54 NW7       30.11F
SISSETON         N/A     62  32  32 W9        30.05F
$$

SDZ017-020-022-023-036>040-048>070-021600-
SOUTHEAST SOUTH DAKOTA

CITY           SKY/WX    TMP DP  RH WIND       PRES   REMARKS
SIOUX FALLS    MOSUNNY   58  39  49 NW7       30.12F
HURON          CLOUDY    52  40  63 CALM      30.11F
MITCHELL       MOSUNNY   53  41  63 NW6       30.13F
YANKTON        SUNNY     54  39  58 NW6       30.13S
$$

ABBREVIATIONS USED IN REMARKS
   TC - TEMPERATURE IN CELSIUS
  WCI - WIND CHILL INDEX
   HX - HEAT INDEX
  VSB - VISIBILITY





USA.gov is the U.S. government's official web portal to all federal, state and local government web resources and services.